Zurück zum Katalog

RAPTOR3

AktivMilitärLEO
NORAD 58958·PAYLOAD·🇺🇸 United States

Gestartet Feb 14, 2024 von Cape Canaveral Space Force Station

Loading…

Nächste Überflüge (nächste 24 Stunden)

TLE

AktuellSource: Space-Track

Epoche: Sep 14, 2026, 14:25 UTC

1 58958U 24028D   26257.60085865 -.00000055  00000-0  25926-4 0  9990
2 58958  39.9929 352.5558 0010320  47.8645 312.2977 13.70489098129339

Verfolge RAPTOR3 in Echtzeit mit AllMySat

Download on the App Store